Location: Allier
(43.1779°N, 0.1173°E)
Time: 07:31:21
(UTC+00:00)

Daily predictions for brighter satellites

Satellite Brightness Start Highest point End
(mag) Time Altitude Azimuth Time Altitude Azimuth Time Altitude Azimuth
Cosmos 2237 Rocket 2.3 16:46:57 10° SSW 16:52:38 84° ESE 16:58:21 10° NNE
BREEZE-M R/B 4.1 16:49:50 10° WNW 16:56:08 38° N 16:59:31 10° ENE
Cosmos 1812 2.7 16:53:24 10° S 16:57:16 90° E 17:01:09 10° N
Cosmos 2333 Rocket 3.6 16:53:37 10° WSW 16:58:53 36° NW 17:04:12 10° N
Aureole 1 Rocket 2.7 16:56:43 10° S 16:59:30 39° ESE 17:02:33 10° NE
USA 215 3.4 16:53:00 10° NE 16:59:35 84° NW 17:06:07 10° SW
STARLINK-29 3.3 16:56:31 10° WSW 17:00:02 74° NW 17:03:34 10° NE
Cosmos 2219 Rocket 3.6 16:55:50 10° WSW 17:00:56 35° NW 17:06:05 10° N
SJ-7 4.5 16:57:01 10° SSE 17:01:12 87° ENE 17:05:20 10° NNW
Cosmos 1733 Rocket 3.4 16:59:16 10° NNW 17:03:39 73° W 17:08:03 10° S
Cosmos 1500 3.3 16:59:58 10° N 17:03:43 78° W 17:07:27 10° S
Nadezhda 4 Rocket 4.0 16:59:15 10° S 17:05:34 78° E 17:11:53 10° N
Cosmos 1943 Rocket 3.6 17:02:02 10° N 17:05:43 17° NE 17:09:21 10° E
COBE Rocket 4.0 17:01:51 10° NNE 17:06:24 49° E 17:10:58 10° S
Radarsat Rocket 4.3 17:01:03 10° S 17:07:09 73° WSW 17:12:59 10° NNW
Cosmos 921 Rocket 3.6 17:08:22 10° N 17:12:19 34° ENE 17:16:18 10° SE
CZ-4 R/B 2.9 17:10:23 10° E 17:12:34 15° ENE 17:14:44 10° NNE
STARLINK-43 4.3 17:11:02 10° SSW 17:14:24 34° SE 17:17:19 13° ENE
Cosmos 1174 4.3 17:09:21 10° SSW 17:14:26 56° ESE 17:18:28 10° NE
AQUARIUS 4.1 17:15:30 10° SSE 17:19:56 67° ENE 17:24:26 10° N
CZ-4B R/B 4.3 17:18:07 10° NNW 17:20:18 16° WNW 17:22:27 10° WSW
Cosmos 1980 4.4 17:19:05 10° SW 17:24:34 52° WNW 17:30:07 10° NNE
Cosmos 2026 Rocket 4.1 17:21:12 10° SSE 17:27:01 51° E 17:32:52 10° NNE
BREEZE-M DEB (TANK) 2.5 17:22:41 10° W 17:27:52 58° N 17:29:56 18° ENE
Cosmos 1140 Rocket 4.1 17:24:05 10° SSE 17:28:43 36° ESE 17:32:58 12° NE
SMAP 3.1 17:25:28 10° SSE 17:30:07 87° WSW 17:34:49 10° NNW
H-2A R/B 2.6 17:26:38 10° SSE 17:30:19 89° ENE 17:34:01 10° NNW
Cosmos 1441 Rocket 3.2 17:27:23 10° N 17:31:08 56° ENE 17:34:49 10° SSE
Envisat 3.1 17:26:22 10° SE 17:31:14 51° ENE 17:36:10 10° N
Cosmos 1975 3.9 17:29:11 10° NNE 17:32:27 24° ENE 17:35:42 10° SE
USA 267 3.2 17:26:25 10° ESE 17:32:55 74° NE 17:39:28 10° NW
Cosmos 2297 3.6 17:31:02 10° NNW 17:36:44 70° ENE 17:42:22 10° SSE
Cosmos 1782 Rocket 3.6 17:33:48 10° N 17:38:05 55° E 17:42:20 10° SSE
SKYMED 2 4.1 17:35:47 12° NNE 17:39:32 37° E 17:43:33 10° SSE
Cosmos 407 Rocket 3.5 17:35:01 10° S 17:40:09 68° ESE 17:45:24 10° NNE
Genesis I 3.3 17:38:18 10° NW 17:42:11 74° WSW 17:45:59 10° SSE
NOAA 12 4.0 17:39:38 10° SSE 17:44:56 80° ENE 17:50:14 10° NNW
Cosmos 1703 Rocket 3.7 17:43:12 10° S 17:47:40 81° W 17:52:11 10° N
Cosmos 1666 3.3 17:44:02 10° NNW 17:47:42 56° W 17:51:21 10° S
Okean 2 Rocket 3.7 17:45:45 10° N 17:49:50 33° ENE 17:53:54 10° SE
Cosmos 2221 Rocket 4.0 17:47:28 10° SSE 17:51:36 38° E 17:54:06 21° NE
Shenzhou-11 Module 4.2 17:51:01 10° WSW 17:53:12 21° SSW 17:55:20 10° SSE
Sich 1 Rocket 3.5 17:49:10 10° N 17:53:32 62° E 17:57:51 10° SSE
Abrixas rocket 2.7 17:51:20 10° SW 17:54:09 37° SSE 17:54:41 34° ESE
Meteor 2-9 Rocket 4.4 17:58:17 10° N 18:04:00 51° ENE 18:09:35 10° SSE
YAOGAN 6 2.4 18:01:02 10° SSE 18:04:34 73° ENE 18:08:09 10° N
STARLINK-48 4.1 18:01:28 10° SSW 18:05:06 39° SE 18:05:42 36° ESE
Cosmos 1943 4.0 18:05:40 10° SSE 18:10:26 29° ESE 18:10:31 29° ESE
Meteor 1-18 Rocket 4.2 18:05:59 10° S 18:11:42 88° E 18:17:21 10° N
CZ-4 R/B 4.3 18:10:30 10° SSE 18:14:39 81° ENE 18:18:50 10° N
Cosmos 1655 Rocket 4.0 18:10:02 10° S 18:16:12 60° E 18:22:22 10° NNE
NOSS 7 (H) 4.1 18:14:43 10° SW 18:18:02 84° S 18:18:02 84° S
Cosmos 1867 3.5 18:12:57 10° NNW 18:18:27 87° NE 18:23:53 10° SSE
Okean 1-7 4.3 18:17:41 10° SSW 18:21:46 40° WNW 18:25:56 10° N
Cosmos 1743 3.4 18:18:44 10° NNW 18:22:31 54° W 18:26:18 10° S
Cosmos 2369 Rocket 2.3 18:18:38 10° NNW 18:24:08 50° ENE 18:25:39 40° ESE
Lacrosse 5 rocket 3.6 18:23:34 10° NW 18:25:27 13° NNW 18:25:54 13° N
Okean-O 4.0 18:21:53 10° S 18:26:03 40° W 18:30:15 10° NNW
Meteor 2-13 Rocket 4.3 18:20:18 10° S 18:26:18 71° E 18:32:10 11° NNE
COSMO-SKYMED 1 2.9 18:24:20 17° N 18:27:37 66° WNW 18:31:55 10° SSW
SL-16 R/B 3.1 18:22:59 10° SW 18:28:27 46° WNW 18:33:06 14° N
Lacrosse 5 2.1 18:24:37 10° SSW 18:29:29 47° SE 18:29:45 46° ESE
YAOGAN 1 2.4 18:26:02 10° SSE 18:30:21 84° ENE 18:34:43 10° NNW
SL-4 R/B 3.4 18:28:23 10° NW 18:30:59 27° N 18:30:59 27° N
Cosmos 1603 3.7 18:29:51 10° S 18:35:28 63° ESE 18:36:36 52° ENE
Cosmos 2237 Rocket 4.5 18:33:36 10° W 18:37:26 18° NW 18:41:17 10° N
Cosmos 676 Rocket 4.1 18:34:06 10° SSW 18:39:15 71° WNW 18:41:40 32° N
DMSP B5D1-3 4.4 18:40:43 65° ENE 18:41:05 67° ESE 18:46:10 10° S
USA 215 4.3 18:39:07 24° NNE 18:42:06 36° NNW 18:47:55 10° W
Cosmos 1954 Rocket 4.2 18:40:56 10° SSW 18:46:03 66° WNW 18:48:10 35° N
CZ-4 R/B 2.3 18:43:31 10° S 18:47:14 44° W 18:50:57 10° NNW
Cosmos 1943 Rocket 2.1 18:44:35 10° NNW 18:50:15 86° WSW 18:52:55 32° SSE
IRIDIUM 104 4.2 18:46:35 10° S 18:51:48 90° E 18:53:03 54° N
S3M 4.0 18:46:07 10° N 18:52:18 76° W 18:58:23 10° S
Gbstr 26 Del rocket 3.9 18:46:02 10° SW 18:53:02 63° SE 18:53:29 61° ESE
Meteor 2-4 Rocket 3.7 18:48:46 10° S 18:54:39 84° W 18:57:05 37° N
Cosmos 2266 Rocket 3.9 18:50:04 10° S 18:56:28 83° E 18:59:28 34° NNE
Okean 3 4.2 18:53:23 10° SSW 18:57:27 50° WNW 18:57:38 49° WNW
CSL-04 Rocket 4.2 18:55:01 10° S 19:00:11 57° WSW 19:05:26 10° NNW
IRIDIUM 114 4.4 18:55:44 10° S 19:00:56 75° W 19:02:11 52° NNW
CZ-4C R/B 2.2 18:57:20 10° SSW 19:01:22 60° S 19:01:22 60° S
Cosmos 2344 4.4 18:59:28 10° NW 19:09:08 67° NE 19:13:45 43° ESE
Centaur D-1A AC-31 4.2 19:07:17 10° SW 19:11:45 24° SSE 19:15:26 20° SE
NOSS 3-1 (C) 3.9 19:16:52 10° NW 19:24:31 87° NE 19:25:30 73° SE
USA 229 DEB 3.8 19:27:29 10° NW 19:34:44 80° WSW 19:34:44 80° WSW
USA 229 3.8 19:27:35 10° NW 19:34:46 81° WSW 19:34:46 81° WSW
NOSS 3-1 (A) 4.2 19:32:47 10° NW 19:39:01 63° N 19:39:01 63° N
Cosmos 2369 Rocket 4.1 20:03:20 10° NW 20:07:35 24° W 20:07:35 24° W
CZ-3B R/B 4.3 20:02:50 10° SW 20:03:58 14° SSW 20:03:58 14° SSW
Lacrosse 5 4.5 20:07:47 10° W 20:09:00 17° W 20:09:00 17° W
